Find Beidou DW 30

NORAD ID: 43245 Int'l Des: 2018-029 Owner: CNSA Country: CN Constellation: BeiDou operational
MEOCIRCULAR

Live Position

Loading 3D Globe...

About Beidou DW 30

Description loading...

Upcoming Passes

Passes for default location (London). Set your location on the main map for personalized predictions.

Altitude History

Loading altitude history...

Two-Line Element Set

1 43245U 18029A 26101.90269336 -.00000017 00000-0 00000-0 0 9995
2 43245 54.2547 302.2668 0001051 58.4707 301.5632 1.86228593 54667
Epoch: Apr 11, 2026 • Age: 62 hours

Current Status

Altitude 21550.1 km
Velocity 3.78 km/s
Sub-Earth Point -53.41°S, 143.85°W
Launch Date Mar 29, 2018
Age 8 years
Type navigation

Launch Group

Unknown Vehicle • BeiDou Launch 28 • 2 satellites

Technical Details

Classification Payload
Mass 1014.00 kg
Dry Mass 850.00 kg
Total Mass 1014.00 kg
Length 2.20 m
Diameter 1.70 m
Span 10.00 m
Shape Box + 2 Pan
Manufacturer SECM
Bus Type BD-3M2
Phase Status In Orbit
Owner/State CNSA/CN

Most Searched